This is the latest recevied weather packets stored in our database for station/object KA9CBS. If no packets are shown the sender has not sent any weather packets the latest 10 day(s).
| Time | Temp. | Humidity | Pressure | Rain* | Wind** | Luminosity | Snow |
|---|---|---|---|---|---|---|---|
| 1777128523 | 20° C | 67% | 1013.9 hPa | 0 mm | - | 531 W/m² | - |
| 1777128220 | 20° C | 67% | 1013.5 hPa | 0 mm | - | 539 W/m² | - |
| 1777127918 | 19.44° C | 70% | 1013.8 hPa | 0 mm | - | 560 W/m² | - |
| 1777127615 | 19.44° C | 68% | 1013.6 hPa | 0 mm | - | 553 W/m² | - |
| 1777127312 | 19.44° C | 68% | 1013.7 hPa | 0 mm | - | 491 W/m² | - |
| 1777127007 | 18.89° C | 69% | 1013.9 hPa | 0 mm | - | 427 W/m² | - |
| 1777126704 | 18.89° C | 68% | 1013.7 hPa | 0 mm | - | 377 W/m² | - |
| 1777126399 | 18.89° C | 72% | 1013.6 hPa | 0 mm | - | 321 W/m² | - |
| 1777126096 | 18.89° C | 71% | 1013.7 hPa | 0 mm | - | 335 W/m² | - |
| 1777125792 | 18.33° C | 74% | 1013.7 hPa | 0 mm | - | 333 W/m² | - |
| 1777125488 | 17.78° C | 73% | 1013.7 hPa | 0 mm | - | 242 W/m² | - |
| 1777125183 | 17.78° C | 74% | 1013.7 hPa | 0 mm | - | 289 W/m² | - |
| 1777124879 | 17.78° C | 75% | 1013.9 hPa | 0 mm | - | 272 W/m² | - |
| 1777124575 | 17.78° C | 76% | 1013.7 hPa | 0 mm | - | 256 W/m² | - |
| 1777124271 | 17.22° C | 76% | 1013.7 hPa | 0 mm | - | 237 W/m² | - |
| 1777123968 | 17.22° C | 77% | 1013.6 hPa | 0 mm | - | 232 W/m² | - |
| 1777123664 | 16.67° C | 78% | 1013.7 hPa | 0 mm | - | 212 W/m² | - |
| 1777123361 | 16.67° C | 79% | 1013.6 hPa | 0 mm | - | 197 W/m² | - |
| 1777123057 | 16.67° C | 81% | 1013.4 hPa | 0 mm | - | 181 W/m² | - |
| 1777122753 | 16.11° C | 82% | 1013.6 hPa | 0 mm | - | 166 W/m² | - |
| 1777122449 | 16.11° C | 82% | 1013.8 hPa | 0 mm | - | 147 W/m² | - |
| 1777122147 | 16.11° C | 83% | 1013.7 hPa | 0 mm | - | 129 W/m² | - |
| 1777121842 | 16.11° C | 84% | 1013.6 hPa | 0 mm | - | 80 W/m² | - |
| 1777121539 | 15.56° C | 85% | 1013.5 hPa | 0 mm | - | 63 W/m² | - |
| 1777121235 | 15.56° C | 85% | 1013.5 hPa | 0 mm | - | 57 W/m² | - |
* Rain latest hour (hover to see other rain measurements)
** Current wind speed in m/s (hover to see current wind gust speed)